Weather History for KLVK - August, 2013

Change the Weather History Date:

Thursday, August 22, 2013

  Actual Average Record
Temperature  
Mean Temperature 69 °F 72 °F  
Max Temperature 80 °F 87 °F 103 °F (1969)
Min Temperature 58 °F 57 °F 45 °F (1973)
Degree Days  
Heating Degree Days 0 0  
Month to date heating degree days 0 0  
Since 1 June heating degree days 5 36  
Since 1 July heating degree days 0 4  
Cooling Degree Days 4 7  
Month to date cooling degree days 173 162  
Year to date cooling degree days 741 556  
Since 1 June cooling degree days 640 503  
Growing Degree Days 19 (Base 50)    
Moisture  
Dew Point 54 °F    
Average Humidity 62    
Maximum Humidity 84    
Minimum Humidity 40    
Precipitation  
Precipitation 0.00 in 0.00 in 0.12 in (2003)
Month to date precipitation 0.00 0.00  
Year to date precipitation 2.12 9.90  
Since 1 July precipitation 0.00 T  
Sea Level Pressure  
Sea Level Pressure 29.92 in    
Wind  
Wind Speed 11 mph (WNW)    
Max Wind Speed 21 mph    
Max Gust Speed 24 mph    
Visibility 10 miles    
Events      
T = Trace of Precipitation, MM = Missing Value Source: NWS Daily Summary

Daily Weather History Graph

Daily Weather History Graph

Search for Another Location

Airport or City:

Trip Planner

Search our weather history database for the weather conditions in past years. The results will help you decide how hot, cold, wet, or windy it might be!

Date:

Astronomy

Aug. 22, 2013 Rise Set
Actual Time 6:29 AM PDT 7:50 PM PDT
Civil Twilight 6:01 AM PDT 8:17 PM PDT
Nautical Twilight 5:28 AM PDT 8:50 PM PDT
Astronomical Twilight 4:54 AM PDT 9:24 PM PDT
Moon 8:41 PM PDT (8/22) 8:20 AM PDT (8/22)
Length of Visible Light 14h 15m
Length of Day
13h 21m
Waning Gibbous, 96% of the Moon is Illuminated
Aug 22
Waning Gibbous
Aug 28
Last Quarter
Sep 5
New
Sep 12
First Quarter
Sep 19
Full

Hourly Weather History & Observations

Time (PDT) Temp. Dew Point Humidity Pressure Visibility Wind Dir Wind Speed Gust Speed Precip Events Conditions
12:53 AM 60.1 °F 54.0 °F 80% 29.91 in 10.0 mi NW 4.6 mph - N/A   Clear
1:53 AM 60.1 °F 54.0 °F 80% 29.90 in 10.0 mi NW 4.6 mph - N/A   Clear
2:53 AM 59.0 °F 54.0 °F 83% 29.90 in 10.0 mi WNW 5.8 mph - N/A   Clear
3:53 AM 60.1 °F 54.0 °F 80% 29.91 in 10.0 mi WNW 8.1 mph - N/A   Clear
4:53 AM 59.0 °F 54.0 °F 83% 29.91 in 10.0 mi West 6.9 mph - N/A   Clear
5:53 AM 60.1 °F 55.0 °F 83% 29.91 in 10.0 mi West 5.8 mph - N/A   Mostly Cloudy
6:53 AM 60.1 °F 55.0 °F 83% 29.92 in 10.0 mi Calm Calm - N/A   Overcast
7:53 AM 61.0 °F 55.0 °F 81% 29.94 in 10.0 mi West 8.1 mph - N/A   Overcast
8:53 AM 63.0 °F 54.0 °F 72% 29.96 in 10.0 mi West 9.2 mph - N/A   Overcast
9:19 AM 64.4 °F 53.6 °F 68% 29.96 in 10.0 mi West 9.2 mph - N/A   Overcast
9:53 AM 64.9 °F 54.0 °F 68% 29.96 in 10.0 mi West 13.8 mph - N/A   Mostly Cloudy
10:53 AM 68.0 °F 54.0 °F 61% 29.96 in 10.0 mi WNW 11.5 mph - N/A   Mostly Cloudy
11:21 AM 69.8 °F 53.6 °F 56% 29.96 in 10.0 mi WNW 11.5 mph - N/A   Partly Cloudy
11:53 AM 72.0 °F 54.0 °F 53% 29.95 in 10.0 mi West 11.5 mph - N/A   Partly Cloudy
12:53 PM 73.9 °F 54.0 °F 50% 29.93 in 10.0 mi WNW 13.8 mph - N/A   Clear
1:53 PM 77.0 °F 53.1 °F 43% 29.91 in 10.0 mi West 10.4 mph - N/A   Clear
2:53 PM 79.0 °F 54.0 °F 42% 29.89 in 10.0 mi WNW 13.8 mph - N/A   Clear
3:53 PM 79.0 °F 53.1 °F 40% 29.88 in 10.0 mi West 19.6 mph - N/A   Clear
4:53 PM 77.0 °F 52.0 °F 42% 29.87 in 10.0 mi West 18.4 mph - N/A   Clear
5:53 PM 73.9 °F 51.1 °F 45% 29.87 in 10.0 mi West 17.3 mph - N/A   Clear
6:53 PM 69.1 °F 53.1 °F 57% 29.88 in 10.0 mi West 17.3 mph - N/A   Clear
7:53 PM 64.9 °F 53.1 °F 65% 29.90 in 10.0 mi West 10.4 mph - N/A   Clear
8:53 PM 63.0 °F 53.1 °F 70% 29.91 in 10.0 mi West 10.4 mph - N/A   Clear
9:53 PM 61.0 °F 54.0 °F 78% 29.91 in 10.0 mi West 10.4 mph - N/A   Clear
10:53 PM 60.1 °F 53.1 °F 78% 29.92 in 10.0 mi West 11.5 mph - N/A   Clear
11:53 PM 59.0 °F 53.1 °F 81% 29.93 in 10.0 mi West 8.1 mph - N/A   Clear